Pagrindinis puslapis
METAR-TAF:

METAR-TAF

Oro uostai :

Kristianstadas, Švedija

platuma: 55-55N, ilguma: 014-05E, Aukštis: 23 m

Dabartinis oras

Ataskaita buvo paskelbta 42 minutes, ne 22:50 UTC
Vėjas 19 kt iš Vakarų
Temperatūra 4°C
Drėgmė 75%
Slėgis 1015 hPa
Matomumas 10 km arba daugiau

METAR: ESMK 062250Z AUTO 28019KT 9999 OVC018/// 04/00 Q1015

Laikas: 00:32 (23:32 UTC)


TAF: trūkstamas

Orai ataskaitas ir orų prognozės (METAR, TAF).

turimą stotys yra geltonos ir raudonos taškus žemėlapyje.

Perkelti pele per norėdami pamatyti stoties vardą.

Tada spustelėkite, norėdami matyti oro stebėjimo ir prognozės.

Norėdami pakeisti žemėlapį: spustelėkite ant žalios mygtukų su juodo kryžiaus žemyn,; žalią mygtuką su brūkšneliu, jei norite nutolinti; arba žalių rodyklių gretimoms žemėlapius.


METAR-TAF: